| time (UTC) | temp F | wind direction | speed knots | gust knots | rain 1hr in | rain 24hr in | rain mn in | humidity % | barometer mb |
| 20260507010329 | 54 | 314 | 1.7 | 1.7 | 0.00 | 0.00 | 0.47 | 68 | 1013.5 |
| 20260507005135 | 54 | 344 | 1.7 | 2.6 | 0.00 | 0.00 | 0.47 | 69 | 1013.2 |
| 20260507004543 | 54 | 331 | 0.9 | 2.6 | 0.00 | 0.00 | 0.47 | 70 | 1013.5 |
| 20260507003344 | 54 | 324 | 0.0 | 1.7 | 0.00 | 0.00 | 0.47 | 70 | 1013.2 |
| 20260507002728 | 55 | 333 | 0.9 | 0.9 | 0.00 | 0.00 | 0.47 | 70 | 1013.2 |
| 20260507001548 | 55 | 331 | 0.9 | 1.7 | 0.00 | 0.00 | 0.47 | 69 | 1013.2 |
| 20260507000314 | 55 | 318 | 1.7 | 5.2 | 0.00 | 0.00 | 0.47 | 68 | 1013.2 |
| 20260506235729 | 56 | 334 | 2.6 | 6.1 | 0.00 | 0.00 | 0.47 | 68 | 1012.8 |
| 20260506235133 | 56 | 355 | 1.7 | 5.2 | 0.00 | 0.00 | 0.47 | 67 | 1012.5 |
| 20260506234523 | 56 | 9 | 3.5 | 3.5 | 0.00 | 0.00 | 0.47 | 67 | 1012.5 |
| 20260506233939 | 56 | 301 | 1.7 | 1.7 | 0.00 | 0.00 | 0.47 | 69 | 1012.5 |
| 20260506233351 | 57 | 322 | 0.0 | 0.9 | 0.00 | 0.00 | 0.47 | 69 | 1012.8 |
| 20260506232743 | 57 | 316 | 0.9 | 1.7 | 0.00 | 0.00 | 0.47 | 69 | 1012.8 |
| 20260506232149 | 57 | 316 | 0.0 | 1.7 | 0.00 | 0.00 | 0.47 | 68 | 1013.2 |
| 20260506231525 | 57 | 344 | 0.0 | 0.9 | 0.00 | 0.00 | 0.47 | 67 | 1013.2 |
| 20260506230932 | 57 | 303 | 0.9 | 1.7 | 0.00 | 0.00 | 0.47 | 68 | 1013.5 |
| 20260506230329 | 57 | 298 | 2.6 | 3.5 | 0.00 | 0.00 | 0.47 | 66 | 1013.2 |
| 20260506225711 | 57 | 318 | 1.7 | 2.6 | 0.00 | 0.00 | 0.47 | 66 | 1013.2 |
| 20260506225110 | 58 | 317 | 0.9 | 0.9 | 0.00 | 0.00 | 0.47 | 66 | 1012.8 |
| 20260506224517 | 57 | 287 | 1.7 | 2.6 | 0.00 | 0.00 | 0.47 | 66 | 1013.2 |
| 20260506223932 | 58 | 264 | 2.6 | 3.5 | 0.00 | 0.00 | 0.47 | 65 | 1013.2 |
| 20260506223327 | 58 | 327 | 1.7 | 1.7 | 0.00 | 0.00 | 0.47 | 64 | 1013.2 |
| 20260506222722 | 58 | 287 | 1.7 | 2.6 | 0.00 | 0.00 | 0.47 | 65 | 1012.8 |
| 20260506222144 | 59 | 357 | 0.9 | 3.5 | 0.00 | 0.00 | 0.47 | 64 | 1012.5 |
| 20260506221515 | 59 | 340 | 1.7 | 1.7 | 0.00 | 0.00 | 0.47 | 63 | 1012.8 |
| 20260506220917 | 59 | 334 | 0.9 | 2.6 | 0.00 | 0.00 | 0.47 | 62 | 1012.8 |
| 20260506220343 | 59 | 333 | 1.7 | 2.6 | 0.00 | 0.00 | 0.47 | 62 | 1012.8 |
| 20260506215738 | 59 | 324 | 1.7 | 3.5 | 0.00 | 0.00 | 0.47 | 63 | 1012.5 |
| 20260506215141 | 59 | 335 | 1.7 | 2.6 | 0.00 | 0.00 | 0.47 | 62 | 1012.1 |
| 20260506214549 | 59 | 319 | 0.9 | 3.5 | 0.00 | 0.00 | 0.47 | 61 | 1012.1 |
| 20260506213317 | 59 | 287 | 3.5 | 5.2 | 0.00 | 0.00 | 0.47 | 63 | 1012.1 |
| 20260506212713 | 60 | 335 | 1.7 | 2.6 | 0.00 | 0.00 | 0.47 | 63 | 1012.5 |
| 20260506212127 | 60 | 321 | 1.7 | 2.6 | 0.00 | 0.00 | 0.47 | 64 | 1012.5 |
| 20260506210929 | 60 | 4 | 1.7 | 2.6 | 0.00 | 0.00 | 0.47 | 69 | 1012.1 |
| 20260506210347 | 61 | 303 | 0.9 | 1.7 | 0.00 | 0.00 | 0.47 | 69 | 1012.1 |
| 20260506204531 | 61 | 304 | 3.5 | 6.1 | 0.00 | 0.00 | 0.47 | 65 | 1011.8 |
| 20260506203311 | 62 | 307 | 1.7 | 1.7 | 0.00 | 0.00 | 0.47 | 65 | 1011.8 |
| 20260506202713 | 60 | 14 | 0.9 | 1.7 | 0.00 | 0.00 | 0.47 | 66 | 1011.8 |
| 20260506201533 | 60 | 322 | 0.9 | 5.2 | 0.00 | 0.00 | 0.47 | 68 | 1011.8 |
| 20260506200314 | 60 | 308 | 1.7 | 3.5 | 0.00 | 0.00 | 0.47 | 66 | 1011.8 |
| 20260506195752 | 62 | 331 | 0.9 | 2.6 | 0.00 | 0.00 | 0.47 | 67 | 1011.8 |
| 20260506194536 | 61 | 322 | 2.6 | 3.5 | 0.00 | 0.00 | 0.47 | 67 | 1011.8 |
| 20260506193953 | 60 | 39 | 1.7 | 2.6 | 0.00 | 0.00 | 0.47 | 70 | 1011.8 |
| 20260506193353 | 60 | 322 | 2.6 | 3.5 | 0.00 | 0.00 | 0.47 | 71 | 1011.8 |
| 20260506192743 | 59 | 314 | 4.3 | 6.1 | 0.00 | 0.00 | 0.47 | 71 | 1012.1 |
| 20260506192132 | 59 | 345 | 1.7 | 2.6 | 0.00 | 0.00 | 0.47 | 72 | 1011.8 |
| 20260506191543 | 59 | 40 | 1.7 | 3.5 | 0.00 | 0.00 | 0.47 | 72 | 1012.1 |
| 20260506190913 | 59 | 32 | 1.7 | 2.6 | 0.00 | 0.00 | 0.47 | 72 | 1011.8 |
| 20260506190340 | 59 | 325 | 2.6 | 2.6 | 0.00 | 0.00 | 0.47 | 74 | 1012.1 |
| 20260506185719 | 57 | 36 | 1.7 | 6.1 | 0.00 | 0.00 | 0.47 | 75 | 1012.1 |
| 20260506184536 | 58 | 36 | 1.7 | 3.5 | 0.00 | 0.00 | 0.47 | 77 | 1012.1 |
| 20260506183920 | 58 | 328 | 1.7 | 2.6 | 0.00 | 0.00 | 0.47 | 77 | 1012.1 |
| 20260506183330 | 58 | 306 | 0.9 | 2.6 | 0.00 | 0.00 | 0.47 | 78 | 1012.1 |
| 20260506182741 | 58 | 322 | 1.7 | 3.5 | 0.00 | 0.00 | 0.47 | 77 | 1012.1 |
| 20260506181541 | 58 | 317 | 0.9 | 1.7 | 0.00 | 0.00 | 0.47 | 78 | 1012.1 |
| 20260506180936 | 58 | 38 | 1.7 | 3.5 | 0.00 | 0.00 | 0.47 | 79 | 1012.1 |
| 20260506180354 | 58 | 32 | 3.5 | 5.2 | 0.00 | 0.00 | 0.47 | 79 | 1011.8 |
| 20260506175748 | 58 | 342 | 0.9 | 0.9 | 0.00 | 0.00 | 0.47 | 82 | 1012.1 |
| 20260506175127 | 56 | 322 | 0.9 | 3.5 | 0.00 | 0.00 | 0.47 | 85 | 1012.1 |
| 20260506174531 | 56 | 288 | 2.6 | 3.5 | 0.00 | 0.00 | 0.47 | 88 | 1012.1 |
| 20260506173943 | 55 | 302 | 5.2 | 6.1 | 0.00 | 0.00 | 0.47 | 92 | 1012.5 |
| 20260506173318 | 54 | 4 | 1.7 | 5.2 | 0.00 | 0.00 | 0.47 | 96 | 1012.1 |
| 20260506172712 | 54 | 353 | 1.7 | 3.5 | 0.00 | 0.00 | 0.47 | 99 | 1012.1 |
| 20260506172141 | 53 | 321 | 0.9 | 6.1 | 0.00 | 0.00 | 0.47 | 99 | 1012.5 |
| 20260506170953 | 52 | 350 | 3.5 | 5.2 | 0.00 | 0.00 | 0.47 | 99 | 1012.1 |
| 20260506170310 | 53 | 343 | 1.7 | 2.6 | 0.00 | 0.00 | 0.47 | 99 | 1012.1 |
| 20260506163946 | 50 | 329 | 2.6 | 8.7 | 0.00 | 0.00 | 0.47 | 99 | 1012.1 |
| 20260506163334 | 51 | 17 | 0.9 | 1.7 | 0.00 | 0.00 | 0.47 | 99 | 1012.1 |
| 20260506162749 | 52 | 284 | 2.6 | 3.5 | 0.00 | 0.00 | 0.47 | 99 | 1012.5 |
| 20260506162115 | 51 | 328 | 2.6 | 2.6 | 0.00 | 0.00 | 0.47 | 99 | 1012.1 |
| 20260506161546 | 50 | 313 | 0.9 | 3.5 | 0.00 | 0.00 | 0.47 | 99 | 1012.5 |
| 20260506160934 | 50 | 325 | 0.9 | 1.7 | 0.00 | 0.00 | 0.47 | 99 | 1012.1 |
| 20260506160351 | 51 | 44 | 0.9 | 2.6 | 0.00 | 0.00 | 0.47 | 99 | 1012.1 |
| 20260506155712 | 50 | 274 | 0.9 | 1.7 | 0.00 | 0.00 | 0.47 | 99 | 1012.1 |
| 20260506155128 | 51 | 30 | 1.7 | 3.5 | 0.00 | 0.00 | 0.47 | 99 | 1012.1 |
| 20260506154542 | 51 | 33 | 0.0 | 1.7 | 0.00 | 0.00 | 0.47 | 99 | 1011.5 |
| 20260506153930 | 52 | 334 | 0.9 | 3.5 | 0.00 | 0.00 | 0.47 | 99 | 1011.8 |
| 20260506153334 | 51 | 278 | 0.9 | 1.7 | 0.00 | 0.00 | 0.47 | 99 | 1011.8 |
| 20260506152733 | 50 | 359 | 0.9 | 1.7 | 0.00 | 0.00 | 0.47 | 99 | 1011.5 |
| 20260506151533 | 49 | 333 | 2.6 | 3.5 | 0.00 | 0.00 | 0.47 | 99 | 1011.5 |
| 20260506150933 | 49 | 313 | 2.6 | 3.5 | 0.00 | 0.00 | 0.47 | 99 | 1011.5 |
| 20260506150311 | 48 | 350 | 2.6 | 5.2 | 0.00 | 0.00 | 0.47 | 99 | 1011.5 |
| 20260506145750 | 48 | 348 | 2.6 | 7.8 | 0.00 | 0.00 | 0.47 | 99 | 1011.1 |
| 20260506145133 | 48 | 319 | 2.6 | 8.7 | 0.00 | 0.00 | 0.47 | 99 | 1011.1 |
| 20260506144538 | 48 | 5 | 0.9 | 3.5 | 0.00 | 0.00 | 0.47 | 99 | 1011.1 |
| 20260506143929 | 48 | 329 | 0.9 | 2.6 | 0.00 | 0.00 | 0.47 | 99 | 1010.8 |
| 20260506143317 | 49 | 332 | 0.9 | 1.7 | 0.00 | 0.00 | 0.47 | 99 | 1010.8 |
| 20260506142716 | 48 | 333 | 2.6 | 7.0 | 0.00 | 0.00 | 0.47 | 99 | 1011.1 |
| 20260506142117 | 48 | 317 | 0.9 | 3.5 | 0.00 | 0.00 | 0.47 | 99 | 1011.1 |
| 20260506141523 | 48 | 331 | 2.6 | 3.5 | 0.00 | 0.00 | 0.47 | 99 | 1010.8 |
| 20260506140935 | 48 | 325 | 3.5 | 5.2 | 0.00 | 0.00 | 0.47 | 99 | 1010.8 |
| 20260506140343 | 48 | 325 | 3.5 | 7.0 | 0.00 | 0.00 | 0.47 | 99 | 1010.4 |
| 20260506135734 | 48 | 350 | 3.5 | 5.2 | 0.00 | 0.00 | 0.47 | 99 | 1010.1 |
| 20260506135139 | 47 | 12 | 1.7 | 3.5 | 0.00 | 0.00 | 0.47 | 99 | 1010.1 |
| 20260506134512 | 47 | 296 | 2.6 | 3.5 | 0.00 | 0.00 | 0.47 | 99 | 1010.4 |
| 20260506133920 | 47 | 351 | 1.7 | 3.5 | 0.00 | 0.00 | 0.47 | 99 | 1010.1 |
| 20260506133350 | 47 | 290 | 0.9 | 5.2 | 0.00 | 0.00 | 0.47 | 99 | 1010.1 |
| 20260506132744 | 47 | 27 | 0.0 | 2.6 | 0.00 | 0.00 | 0.46 | 99 | 1010.1 |
| 20260506132120 | 47 | 312 | 2.6 | 5.2 | 0.00 | 0.00 | 0.46 | 99 | 1010.4 |
| 20260506131514 | 47 | 19 | 2.6 | 7.8 | 0.00 | 0.00 | 0.46 | 99 | 1010.1 |
| 20260506130920 | 47 | 24 | 2.6 | 7.0 | 0.00 | 0.00 | 0.46 | 99 | 1010.1 |
| 20260506125727 | 47 | 311 | 1.7 | 5.2 | 0.00 | 0.00 | 0.46 | 99 | 1009.8 |
| 20260506125146 | 47 | 3 | 0.9 | 2.6 | 0.00 | 0.00 | 0.45 | 99 | 1009.8 |
| 20260506124511 | 48 | 345 | 1.7 | 5.2 | 0.00 | 0.00 | 0.45 | 99 | 1009.4 |
| 20260506123932 | 48 | 0 | 0.9 | 7.8 | 0.00 | 0.00 | 0.45 | 99 | 1009.1 |
| 20260506123320 | 48 | 309 | 0.0 | 1.7 | 0.00 | 0.00 | 0.45 | 99 | 1009.1 |
| 20260506122715 | 48 | 348 | 2.6 | 3.5 | 0.00 | 0.00 | 0.45 | 99 | 1008.8 |
| 20260506122149 | 48 | 352 | 2.6 | 5.2 | 0.00 | 0.00 | 0.45 | 99 | 1009.1 |
| 20260506121518 | 48 | 6 | 0.9 | 2.6 | 0.00 | 0.00 | 0.45 | 99 | 1009.1 |
| 20260506120310 | 48 | 0 | 0.0 | 2.6 | 0.00 | 0.00 | 0.45 | 99 | 1008.4 |
| 20260506115715 | 48 | 295 | 2.6 | 3.5 | 0.00 | 0.00 | 0.45 | 99 | 1008.4 |
| 20260506115122 | 48 | 352 | 0.9 | 2.6 | 0.00 | 0.00 | 0.45 | 99 | 1008.4 |
| 20260506114533 | 49 | 328 | 2.6 | 5.2 | 0.00 | 0.00 | 0.45 | 99 | 1008.4 |
| 20260506113948 | 49 | 347 | 3.5 | 7.0 | 0.00 | 0.00 | 0.45 | 99 | 1008.4 |
| 20260506112733 | 49 | 343 | 1.7 | 5.2 | 0.00 | 0.00 | 0.45 | 99 | 1008.1 |
| 20260506111515 | 50 | 298 | 0.9 | 5.2 | 0.00 | 0.00 | 0.45 | 99 | 1007.7 |
| 20260506110913 | 50 | 332 | 4.3 | 7.0 | 0.00 | 0.00 | 0.45 | 99 | 1007.7 |
| 20260506105711 | 52 | 312 | 1.7 | 3.5 | 0.00 | 0.00 | 0.44 | 99 | 1007.4 |
| 20260506105146 | 57 | 297 | 3.5 | 7.0 | 0.00 | 0.00 | 0.43 | 99 | 1007.4 |
| 20260506103921 | 57 | 276 | 0.9 | 1.7 | 0.00 | 0.00 | 0.42 | 99 | 1007.1 |
| 20260506103351 | 56 | 246 | 0.0 | 0.9 | 0.00 | 0.00 | 0.42 | 99 | 1006.7 |
| 20260506102708 | 57 | 254 | 1.7 | 1.7 | 0.00 | 0.00 | 0.42 | 99 | 1007.1 |
| 20260506102109 | 57 | 198 | 0.9 | 1.7 | 0.00 | 0.00 | 0.41 | 99 | 1007.1 |
| 20260506100950 | 57 | 246 | 1.7 | 7.0 | 0.00 | 0.00 | 0.41 | 99 | 1006.7 |
| 20260506095711 | 57 | 125 | 0.9 | 2.6 | 0.00 | 0.00 | 0.41 | 99 | 1007.1 |
| 20260506095149 | 57 | 245 | 1.7 | 3.5 | 0.00 | 0.00 | 0.41 | 99 | 1007.1 |
| 20260506094538 | 57 | 348 | 0.9 | 2.6 | 0.00 | 0.00 | 0.41 | 99 | 1006.7 |
| 20260506093321 | 57 | 278 | 0.9 | 1.7 | 0.00 | 0.00 | 0.41 | 99 | 1007.1 |
| 20260506092747 | 57 | 211 | 0.0 | 1.7 | 0.00 | 0.00 | 0.41 | 99 | 1007.1 |
| 20260506092113 | 57 | 72 | 0.9 | 3.5 | 0.00 | 0.00 | 0.40 | 99 | 1007.1 |
| 20260506090323 | 57 | 190 | 0.9 | 1.7 | 0.00 | 0.00 | 0.38 | 99 | 1007.1 |
| 20260506085736 | 57 | 170 | 0.9 | 3.5 | 0.00 | 0.00 | 0.38 | 99 | 1007.1 |
| 20260506085114 | 57 | 185 | 0.9 | 2.6 | 0.00 | 0.00 | 0.38 | 99 | 1007.1 |
| 20260506083926 | 57 | 259 | 2.6 | 3.5 | 0.00 | 0.00 | 0.37 | 99 | 1007.1 |
| 20260506083337 | 57 | 232 | 3.5 | 5.2 | 0.00 | 0.00 | 0.37 | 99 | 1007.1 |
| 20260506082737 | 57 | 241 | 1.7 | 2.6 | 0.00 | 0.00 | 0.36 | 99 | 1007.1 |
| 20260506082142 | 57 | 255 | 3.5 | 8.7 | 0.00 | 0.00 | 0.36 | 99 | 1007.1 |
| 20260506081514 | 57 | 265 | 1.7 | 5.2 | 0.00 | 0.00 | 0.35 | 99 | 1007.1 |
| 20260506080930 | 57 | 146 | 1.7 | 5.2 | 0.00 | 0.00 | 0.35 | 99 | 1007.1 |
| 20260506080318 | 57 | 205 | 1.7 | 6.1 | 0.00 | 0.00 | 0.34 | 99 | 1007.1 |
| 20260506073309 | 57 | 171 | 0.9 | 1.7 | 0.00 | 0.00 | 0.31 | 99 | 1007.4 |
| 20260506072709 | 57 | 253 | 0.0 | 1.7 | 0.00 | 0.00 | 0.28 | 99 | 1007.1 |
| 20260506072143 | 57 | 233 | 0.0 | 2.6 | 0.00 | 0.00 | 0.26 | 99 | 1007.4 |
| 20260506071550 | 57 | 232 | 0.9 | 2.6 | 0.00 | 0.00 | 0.24 | 99 | 1007.4 |
| 20260506070907 | 57 | 241 | 0.9 | 3.5 | 0.00 | 0.00 | 0.23 | 99 | 1007.4 |
| 20260506070330 | 57 | 204 | 0.9 | 3.5 | 0.00 | 0.00 | 0.22 | 99 | 1007.4 |
| 20260506062127 | 57 | 205 | 0.0 | 0.0 | 0.00 | 0.00 | 0.17 | 99 | 1007.1 |
| 20260506061510 | 57 | 120 | 0.0 | 0.0 | 0.00 | 0.00 | 0.17 | 99 | 1007.1 |
| 20260506060342 | 57 | 141 | 0.0 | 0.0 | 0.00 | 0.00 | 0.14 | 99 | 1007.7 |
| 20260506050949 | 58 | 223 | 0.0 | 0.9 | 0.00 | 0.00 | 0.12 | 99 | 1008.1 |
| 20260506050336 | 58 | 185 | 0.0 | 1.7 | 0.00 | 0.00 | 0.11 | 99 | 1008.4 |
| 20260506044516 | 58 | 154 | 0.0 | 1.7 | 0.00 | 0.00 | 0.07 | 99 | 1009.1 |
| 20260506043920 | 58 | 137 | 1.7 | 1.7 | 0.00 | 0.00 | 0.05 | 98 | 1009.1 |
| 20260506042725 | 58 | 265 | 0.9 | 3.5 | 0.00 | 0.00 | 0.02 | 98 | 1009.1 |
| 20260506042128 | 59 | 276 | 1.7 | 2.6 | 0.00 | 0.00 | 0.01 | 97 | 1009.4 |
| 20260506041543 | 59 | 280 | 0.9 | 1.7 | 0.00 | 0.00 | 0.00 | 97 | 1009.4 |
| 20260506040349 | 59 | 203 | 0.0 | 0.0 | 0.00 | 0.00 | 0.03 | 96 | 1008.8 |
| 20260506035712 | 59 | 199 | 0.0 | 0.0 | 0.00 | 0.00 | 0.03 | 95 | 1008.8 |
| 20260506035141 | 60 | 239 | 0.0 | 0.0 | 0.00 | 0.00 | 0.02 | 95 | 1008.8 |
| 20260506033948 | 60 | 240 | 0.0 | 0.9 | 0.00 | 0.00 | 0.02 | 94 | 1008.8 |
| 20260506033317 | 60 | 218 | 0.0 | 0.0 | 0.00 | 0.00 | 0.02 | 93 | 1008.8 |
| 20260506032715 | 60 | 197 | 0.0 | 0.9 | 0.00 | 0.00 | 0.02 | 93 | 1009.1 |
| 20260506032147 | 60 | 204 | 0.0 | 0.0 | 0.00 | 0.00 | 0.02 | 92 | 1008.8 |
| 20260506031550 | 60 | 189 | 0.9 | 1.7 | 0.00 | 0.00 | 0.02 | 92 | 1009.1 |
| 20260506030914 | 60 | 149 | 1.7 | 1.7 | 0.00 | 0.00 | 0.02 | 91 | 1008.8 |
| 20260506030347 | 60 | 199 | 0.0 | 0.9 | 0.00 | 0.00 | 0.02 | 90 | 1008.8 |
| 20260506025746 | 61 | 198 | 0.0 | 0.9 | 0.00 | 0.00 | 0.02 | 88 | 1008.8 |
| 20260506025129 | 62 | 150 | 0.9 | 1.7 | 0.00 | 0.00 | 0.02 | 86 | 1009.1 |
| 20260506024518 | 62 | 202 | 0.9 | 1.7 | 0.00 | 0.00 | 0.01 | 83 | 1009.1 |
| 20260506023916 | 64 | 227 | 0.9 | 1.7 | 0.00 | 0.00 | 0.01 | 79 | 1009.1 |
| 20260506023351 | 64 | 219 | 2.6 | 5.2 | 0.00 | 0.00 | 0.00 | 76 | 1009.4 |
| 20260506022716 | 65 | 213 | 2.6 | 5.2 | 0.00 | 0.00 | 0.00 | 73 | 1009.1 |
| 20260506022143 | 66 | 242 | 0.9 | 5.2 | 0.00 | 0.00 | 0.00 | 72 | 1009.1 |
| 20260506021545 | 66 | 177 | 1.7 | 5.2 | 0.00 | 0.00 | 0.00 | 70 | 1009.1 |
| 20260506020946 | 67 | 291 | 0.9 | 2.6 | 0.00 | 0.00 | 0.00 | 69 | 1009.1 |
| 20260506020334 | 67 | 210 | 0.9 | 3.5 | 0.00 | 0.00 | 0.00 | 68 | 1008.8 |
| 20260506015719 | 67 | 262 | 0.9 | 2.6 | 0.00 | 0.00 | 0.00 | 67 | 1009.1 |
| 20260506015150 | 67 | 240 | 1.7 | 1.7 | 0.00 | 0.00 | 0.00 | 67 | 1008.8 |
| 20260506014532 | 67 | 27 | 0.9 | 1.7 | 0.00 | 0.00 | 0.00 | 66 | 1008.8 |
| 20260506013937 | 68 | 283 | 1.7 | 1.7 | 0.00 | 0.00 | 0.00 | 66 | 1008.8 |
| 20260506013345 | 68 | 234 | 1.7 | 5.2 | 0.00 | 0.00 | 0.00 | 65 | 1008.8 |
| 20260506012147 | 68 | 123 | 1.7 | 6.1 | 0.00 | 0.00 | 0.00 | 65 | 1009.1 |
| 20260506010911 | 68 | 128 | 2.6 | 6.1 | 0.00 | 0.00 | 0.00 | 64 | 1008.8 |